Data supplied by UK-AIR on 6/6/2017
All Data GMT hour ending 
Status: R =Ratified P=Provisional,P*=As supplied
,,Bush Estate,,,,,,,,,,,,,,,,,,,,,,,
Date,time,"Nitric oxide",status,unit,"Nitrogen dioxide",status,unit,"Nitrogen oxides as nitrogen dioxide",status,unit,"Ozone",status,unit
 
01-01-2016,01:00,0.54632,R,ugm-3,1.29030,R,ugm-3,2.12798,R,ugm-3,66.25724,R,ugm-3
01-01-2016,02:00,0.81948,R,ugm-3,1.43948,R,ugm-3,2.69599,R,ugm-3,61.53408,R,ugm-3
01-01-2016,03:00,0.61492,R,ugm-3,1.98374,R,ugm-3,2.92660,R,ugm-3,59.67143,R,ugm-3
01-01-2016,04:00,0.40943,R,ugm-3,2.24623,R,ugm-3,2.87401,R,ugm-3,58.77337,R,ugm-3
01-01-2016,05:00,0.61461,R,ugm-3,2.46426,R,ugm-3,3.40664,R,ugm-3,56.37853,R,ugm-3
01-01-2016,06:00,0.88745,R,ugm-3,2.04494,R,ugm-3,3.40568,R,ugm-3,58.07487,R,ugm-3
01-01-2016,07:00,1.09264,R,ugm-3,2.52880,R,ugm-3,4.20415,R,ugm-3,58.77337,R,ugm-3
01-01-2016,08:00,1.12694,R,ugm-3,13.54480,R,ugm-3,15.27275,R,ugm-3,41.71013,R,ugm-3
01-01-2016,09:00,1.33149,R,ugm-3,11.95408,R,ugm-3,13.99568,R,ugm-3,41.51056,R,ugm-3
01-01-2016,10:00,0.95574,R,ugm-3,4.60148,R,ugm-3,6.06693,R,ugm-3,51.78842,R,ugm-3
01-01-2016,11:00,1.09264,R,ugm-3,3.32679,R,ugm-3,5.00214,R,ugm-3,56.42842,R,ugm-3
01-01-2016,12:00,0.58031,R,ugm-3,2.67607,R,ugm-3,3.56586,R,ugm-3,59.02283,R,ugm-3
01-01-2016,13:00,0.85378,R,ugm-3,3.00119,R,ugm-3,4.31030,R,ugm-3,59.57165,R,ugm-3
01-01-2016,14:00,1.02435,R,ugm-3,6.09227,R,ugm-3,7.66291,R,ugm-3,53.88390,R,ugm-3
01-01-2016,15:00,0.92207,R,ugm-3,4.17355,R,ugm-3,5.58737,R,ugm-3,58.67358,R,ugm-3
01-01-2016,16:00,0.88808,R,ugm-3,8.16351,R,ugm-3,9.52521,R,ugm-3,52.23745,R,ugm-3
01-01-2016,17:00,1.19460,R,ugm-3,11.89814,R,ugm-3,13.72984,R,ugm-3,49.09422,R,ugm-3
01-01-2016,18:00,1.05833,R,ugm-3,12.58568,R,ugm-3,14.20844,R,ugm-3,49.09422,R,ugm-3
01-01-2016,19:00,1.12662,R,ugm-3,11.57636,R,ugm-3,13.30383,R,ugm-3,53.73422,R,ugm-3
01-01-2016,20:00,0.61430,R,ugm-3,5.81639,R,ugm-3,6.75830,R,ugm-3,58.27444,R,ugm-3
01-01-2016,21:00,0.92176,R,ugm-3,6.35619,R,ugm-3,7.76953,R,ugm-3,58.07487,R,ugm-3
01-01-2016,22:00,0.95606,R,ugm-3,5.18622,R,ugm-3,6.65215,R,ugm-3,60.51960,R,ugm-3
01-01-2016,23:00,0.68259,R,ugm-3,4.96676,R,ugm-3,6.01338,R,ugm-3,61.91659,R,ugm-3
01-01-2016,24:00,1.02403,R,ugm-3,7.42289,R,ugm-3,8.99305,R,ugm-3,57.52605,R,ugm-3
02-01-2016,01:00,0.63696,R,ugm-3,2.63606,R,ugm-3,3.61271,R,ugm-3,65.39244,R,ugm-3
02-01-2016,02:00,1.02341,R,ugm-3,4.80468,R,ugm-3,6.37388,R,ugm-3,63.92892,R,ugm-3
02-01-2016,03:00,0.88714,R,ugm-3,5.06765,R,ugm-3,6.42791,R,ugm-3,64.41122,R,ugm-3
02-01-2016,04:00,0.44342,R,ugm-3,2.50633,R,ugm-3,3.18623,R,ugm-3,62.41552,R,ugm-3
02-01-2016,05:00,0.61398,R,ugm-3,2.40497,R,ugm-3,3.34640,R,ugm-3,60.41982,R,ugm-3
02-01-2016,06:00,0.54569,R,ugm-3,4.58187,R,ugm-3,5.41859,R,ugm-3,53.73422,R,ugm-3
02-01-2016,07:00,0.68227,R,ugm-3,7.66530,R,ugm-3,8.71144,R,ugm-3,46.20046,R,ugm-3
02-01-2016,08:00,1.43284,R,ugm-3,11.34830,R,ugm-3,13.54528,R,ugm-3,39.46497,R,ugm-3
02-01-2016,09:00,1.12600,R,ugm-3,6.82571,R,ugm-3,8.55222,R,ugm-3,40.61250,R,ugm-3
02-01-2016,10:00,1.02341,R,ugm-3,6.87687,R,ugm-3,8.44608,R,ugm-3,38.41723,R,ugm-3
02-01-2016,11:00,1.12569,R,ugm-3,6.61390,R,ugm-3,8.33993,R,ugm-3,39.91400,R,ugm-3
02-01-2016,12:00,0.95543,R,ugm-3,6.18407,R,ugm-3,7.64904,R,ugm-3,40.11357,R,ugm-3
02-01-2016,13:00,1.53511,R,ugm-3,7.63279,R,ugm-3,9.98660,R,ugm-3,38.26755,R,ugm-3
02-01-2016,14:00,1.29657,R,ugm-3,7.30814,R,ugm-3,9.29618,R,ugm-3,38.81637,R,ugm-3
02-01-2016,15:00,1.12538,R,ugm-3,7.67678,R,ugm-3,9.40233,R,ugm-3,37.21981,R,ugm-3
02-01-2016,16:00,0.98942,R,ugm-3,7.51373,R,ugm-3,9.03083,R,ugm-3,39.81422,R,ugm-3
02-01-2016,17:00,1.02310,R,ugm-3,6.61199,R,ugm-3,8.18072,R,ugm-3,41.51056,R,ugm-3
02-01-2016,18:00,0.75025,R,ugm-3,6.65837,R,ugm-3,7.80874,R,ugm-3,39.31529,R,ugm-3
02-01-2016,19:00,1.02341,R,ugm-3,6.23953,R,ugm-3,7.80874,R,ugm-3,38.86626,R,ugm-3
02-01-2016,20:00,0.61398,R,ugm-3,5.69829,R,ugm-3,6.63972,R,ugm-3,39.56475,R,ugm-3
02-01-2016,21:00,0.68227,R,ugm-3,5.75328,R,ugm-3,6.79942,R,ugm-3,37.96819,R,ugm-3
02-01-2016,22:00,0.78486,R,ugm-3,5.75471,R,ugm-3,6.95815,R,ugm-3,37.12002,R,ugm-3
02-01-2016,23:00,0.95481,R,ugm-3,6.18503,R,ugm-3,7.64904,R,ugm-3,34.57550,R,ugm-3
02-01-2016,24:00,0.95512,R,ugm-3,7.03513,R,ugm-3,8.49963,R,ugm-3,32.87916,R,ugm-3
03-01-2016,01:00,0.86313,R,ugm-3,7.02653,R,ugm-3,8.34998,R,ugm-3,32.39686,R,ugm-3
03-01-2016,02:00,0.99950,R,ugm-3,8.16191,R,ugm-3,9.69446,R,ugm-3,30.26812,R,ugm-3
03-01-2016,03:00,0.81792,R,ugm-3,6.54744,R,ugm-3,7.80157,R,ugm-3,31.68174,R,ugm-3
03-01-2016,04:00,0.68134,R,ugm-3,5.69543,R,ugm-3,6.74013,R,ugm-3,32.72948,R,ugm-3
03-01-2016,05:00,0.81792,R,ugm-3,5.27372,R,ugm-3,6.52784,R,ugm-3,32.92905,R,ugm-3
03-01-2016,06:00,0.61305,R,ugm-3,5.11020,R,ugm-3,6.05019,R,ugm-3,33.12862,R,ugm-3
03-01-2016,07:00,0.51108,R,ugm-3,5.21348,R,ugm-3,5.99712,R,ugm-3,33.37808,R,ugm-3
03-01-2016,08:00,0.85191,R,ugm-3,5.69925,R,ugm-3,7.00549,R,ugm-3,30.88346,R,ugm-3
03-01-2016,09:00,0.74963,R,ugm-3,6.91751,R,ugm-3,8.06693,R,ugm-3,25.74453,R,ugm-3
03-01-2016,10:00,0.95419,R,ugm-3,7.55916,R,ugm-3,9.02222,R,ugm-3,24.74668,R,ugm-3
03-01-2016,11:00,1.15874,R,ugm-3,7.40472,R,ugm-3,9.18143,R,ugm-3,25.54496,R,ugm-3
03-01-2016,12:00,1.36330,R,ugm-3,8.09944,R,ugm-3,10.18980,R,ugm-3,24.89636,R,ugm-3
03-01-2016,13:00,1.87469,R,ugm-3,8.74825,R,ugm-3,11.62274,R,ugm-3,24.54711,R,ugm-3
03-01-2016,14:00,1.49988,R,ugm-3,8.73917,R,ugm-3,11.03895,R,ugm-3,24.34754,R,ugm-3
03-01-2016,15:00,1.29501,R,ugm-3,8.94715,R,ugm-3,10.93281,R,ugm-3,25.59485,R,ugm-3
03-01-2016,16:00,1.05646,R,ugm-3,7.34926,R,ugm-3,8.96915,R,ugm-3,43.60605,R,ugm-3
03-01-2016,17:00,0.57937,R,ugm-3,5.74563,R,ugm-3,6.63398,R,ugm-3,59.47186,R,ugm-3
03-01-2016,18:00,0.74963,R,ugm-3,5.48457,R,ugm-3,6.63398,R,ugm-3,58.87315,R,ugm-3
03-01-2016,19:00,0.85191,R,ugm-3,2.78030,R,ugm-3,4.08653,R,ugm-3,65.95789,R,ugm-3
03-01-2016,20:00,0.57937,R,ugm-3,2.03060,R,ugm-3,2.91895,R,ugm-3,69.69982,R,ugm-3
03-01-2016,21:00,0.57937,R,ugm-3,1.87138,R,ugm-3,2.75974,R,ugm-3,68.95144,R,ugm-3
03-01-2016,22:00,0.44310,R,ugm-3,1.70882,R,ugm-3,2.38823,R,ugm-3,66.30713,R,ugm-3
03-01-2016,23:00,0.47709,R,ugm-3,1.97513,R,ugm-3,2.70667,R,ugm-3,63.91229,R,ugm-3
03-01-2016,24:00,0.64766,R,ugm-3,1.81974,R,ugm-3,2.81281,R,ugm-3,63.51315,R,ugm-3
04-01-2016,01:00,0.86230,R,ugm-3,1.43565,R,ugm-3,2.75783,R,ugm-3,62.79803,R,ugm-3
04-01-2016,02:00,0.74900,R,ugm-3,2.50968,R,ugm-3,3.65813,R,ugm-3,57.67573,R,ugm-3
04-01-2016,03:00,1.29407,R,ugm-3,11.80204,R,ugm-3,13.78626,R,ugm-3,48.44562,R,ugm-3
04-01-2016,04:00,1.05553,R,ugm-3,9.19817,R,ugm-3,10.81662,R,ugm-3,56.87745,R,ugm-3
04-01-2016,05:00,0.74869,R,ugm-3,3.83600,R,ugm-3,4.98398,R,ugm-3,60.91874,R,ugm-3
04-01-2016,06:00,0.47678,R,ugm-3,3.03370,R,ugm-3,3.76476,R,ugm-3,61.06842,R,ugm-3
04-01-2016,07:00,0.81698,R,ugm-3,3.30719,R,ugm-3,4.55988,R,ugm-3,58.77337,R,ugm-3
04-01-2016,08:00,0.85128,R,ugm-3,4.31556,R,ugm-3,5.62084,R,ugm-3,51.28949,R,ugm-3
04-01-2016,09:00,0.85097,R,ugm-3,5.69495,R,ugm-3,6.99975,R,ugm-3,43.10712,R,ugm-3
04-01-2016,10:00,1.29407,R,ugm-3,6.07506,R,ugm-3,8.05928,R,ugm-3,39.66454,R,ugm-3
04-01-2016,11:00,1.39604,R,ugm-3,7.03226,R,ugm-3,9.17283,R,ugm-3,36.07228,R,ugm-3
04-01-2016,12:00,1.60029,R,ugm-3,7.03704,R,ugm-3,9.49078,R,ugm-3,37.12002,R,ugm-3
04-01-2016,13:00,1.26009,R,ugm-3,6.28639,R,ugm-3,8.21849,R,ugm-3,42.25895,R,ugm-3
04-01-2016,14:00,1.22610,R,ugm-3,6.76260,R,ugm-3,8.64259,R,ugm-3,43.75572,R,ugm-3
04-01-2016,15:00,1.39604,R,ugm-3,7.03226,R,ugm-3,9.17283,R,ugm-3,47.64734,R,ugm-3
04-01-2016,16:00,0.95387,R,ugm-3,7.02174,R,ugm-3,8.48433,R,ugm-3,48.54540,R,ugm-3
04-01-2016,17:00,1.43003,R,ugm-3,8.35906,R,ugm-3,10.55174,R,ugm-3,41.76002,R,ugm-3
04-01-2016,18:00,1.05584,R,ugm-3,7.18287,R,ugm-3,8.80180,R,ugm-3,44.55400,R,ugm-3
04-01-2016,19:00,1.15781,R,ugm-3,7.39803,R,ugm-3,9.17331,R,ugm-3,39.71443,R,ugm-3
04-01-2016,20:00,1.08952,R,ugm-3,7.76762,R,ugm-3,9.43819,R,ugm-3,37.66884,R,ugm-3
04-01-2016,21:00,0.85097,R,ugm-3,7.33826,R,ugm-3,8.64307,R,ugm-3,39.51486,R,ugm-3
04-01-2016,22:00,0.98755,R,ugm-3,7.55294,R,ugm-3,9.06716,R,ugm-3,36.52131,R,ugm-3
04-01-2016,23:00,0.74900,R,ugm-3,6.11618,R,ugm-3,7.26463,R,ugm-3,39.66454,R,ugm-3
04-01-2016,24:00,0.88527,R,ugm-3,5.32392,R,ugm-3,6.68132,R,ugm-3,41.76002,R,ugm-3
05-01-2016,01:00,0.99826,R,ugm-3,5.03816,R,ugm-3,6.56880,R,ugm-3,42.77450,R,ugm-3
05-01-2016,02:00,0.86230,R,ugm-3,5.03498,R,ugm-3,6.35715,R,ugm-3,42.97407,R,ugm-3
05-01-2016,03:00,1.05490,R,ugm-3,5.42815,R,ugm-3,7.04565,R,ugm-3,42.50841,R,ugm-3
05-01-2016,04:00,0.95263,R,ugm-3,5.95600,R,ugm-3,7.41668,R,ugm-3,42.10927,R,ugm-3
05-01-2016,05:00,0.88496,R,ugm-3,6.85440,R,ugm-3,8.21132,R,ugm-3,38.66669,R,ugm-3
05-01-2016,06:00,1.25884,R,ugm-3,7.81734,R,ugm-3,9.74753,R,ugm-3,36.92045,R,ugm-3
05-01-2016,07:00,0.81636,R,ugm-3,8.01911,R,ugm-3,9.27084,R,ugm-3,38.31744,R,ugm-3
05-01-2016,08:00,1.73499,R,ugm-3,11.21920,R,ugm-3,13.87949,R,ugm-3,31.93120,R,ugm-3
05-01-2016,09:00,2.24545,R,ugm-3,14.40973,R,ugm-3,17.85271,R,ugm-3,26.74238,R,ugm-3
05-01-2016,10:00,2.10950,R,ugm-3,14.72434,R,ugm-3,17.95885,R,ugm-3,25.29550,R,ugm-3
05-01-2016,11:00,2.61933,R,ugm-3,16.37961,R,ugm-3,20.39586,R,ugm-3,20.90496,R,ugm-3
05-01-2016,12:00,2.78959,R,ugm-3,16.64831,R,ugm-3,20.92562,R,ugm-3,19.30840,R,ugm-3
05-01-2016,13:00,4.45660,R,ugm-3,21.13791,R,ugm-3,27.97127,R,ugm-3,16.36474,R,ugm-3
05-01-2016,14:00,4.04842,R,ugm-3,21.23401,R,ugm-3,27.44151,R,ugm-3,18.90926,R,ugm-3
05-01-2016,15:00,3.29973,R,ugm-3,20.15727,R,ugm-3,25.21679,R,ugm-3,18.80947,R,ugm-3
05-01-2016,16:00,3.94646,R,ugm-3,22.50343,R,ugm-3,28.55458,R,ugm-3,16.71399,R,ugm-3
05-01-2016,17:00,5.06872,R,ugm-3,27.35114,R,ugm-3,35.12306,R,ugm-3,15.06754,R,ugm-3
05-01-2016,18:00,4.66085,R,ugm-3,25.85748,R,ugm-3,33.00401,R,ugm-3,18.11098,R,ugm-3
05-01-2016,19:00,3.81019,R,ugm-3,20.16970,R,ugm-3,26.01191,R,ugm-3,14.21936,R,ugm-3
05-01-2016,20:00,2.10887,R,ugm-3,19.06954,R,ugm-3,22.30310,R,ugm-3,14.16947,R,ugm-3
05-01-2016,21:00,2.00691,R,ugm-3,17.84841,R,ugm-3,20.92562,R,ugm-3,21.30410,R,ugm-3
05-01-2016,22:00,1.63272,R,ugm-3,13.33634,R,ugm-3,15.83980,R,ugm-3,28.23916,R,ugm-3
05-01-2016,23:00,1.49676,R,ugm-3,12.75064,R,ugm-3,15.04564,R,ugm-3,27.93980,R,ugm-3
05-01-2016,24:00,1.29283,R,ugm-3,13.22255,R,ugm-3,15.20485,R,ugm-3,28.38883,R,ugm-3
06-01-2016,01:00,1.04233,R,ugm-3,11.58656,R,ugm-3,13.18478,R,ugm-3,30.20159,R,ugm-3
06-01-2016,02:00,1.01967,R,ugm-3,9.75327,R,ugm-3,11.31674,R,ugm-3,32.13077,R,ugm-3
06-01-2016,03:00,0.91770,R,ugm-3,10.70235,R,ugm-3,12.10947,R,ugm-3,30.23486,R,ugm-3
06-01-2016,04:00,0.57781,R,ugm-3,7.09872,R,ugm-3,7.98469,R,ugm-3,37.86841,R,ugm-3
06-01-2016,05:00,0.64579,R,ugm-3,5.40855,R,ugm-3,6.39875,R,ugm-3,43.85551,R,ugm-3
06-01-2016,06:00,0.74776,R,ugm-3,4.67033,R,ugm-3,5.81687,R,ugm-3,47.49766,R,ugm-3
06-01-2016,07:00,0.78175,R,ugm-3,4.82954,R,ugm-3,6.02820,R,ugm-3,50.69078,R,ugm-3
06-01-2016,08:00,1.42754,R,ugm-3,7.17140,R,ugm-3,9.36025,R,ugm-3,52.83616,R,ugm-3
06-01-2016,09:00,1.18961,R,ugm-3,7.00740,R,ugm-3,8.83145,R,ugm-3,54.93164,R,ugm-3
06-01-2016,10:00,0.67978,R,ugm-3,5.30384,R,ugm-3,6.34615,R,ugm-3,59.47186,R,ugm-3
06-01-2016,11:00,0.95169,R,ugm-3,4.41023,R,ugm-3,5.86946,R,ugm-3,61.61724,R,ugm-3
06-01-2016,12:00,0.78175,R,ugm-3,4.93521,R,ugm-3,6.13387,R,ugm-3,58.92304,R,ugm-3
06-01-2016,13:00,0.95169,R,ugm-3,5.41572,R,ugm-3,6.87496,R,ugm-3,57.17681,R,ugm-3
06-01-2016,14:00,0.91770,R,ugm-3,5.36169,R,ugm-3,6.76882,R,ugm-3,55.43057,R,ugm-3
06-01-2016,15:00,0.88371,R,ugm-3,5.41333,R,ugm-3,6.76834,R,ugm-3,52.03788,R,ugm-3
06-01-2016,16:00,1.01967,R,ugm-3,6.73917,R,ugm-3,8.30264,R,ugm-3,44.40433,R,ugm-3
06-01-2016,17:00,2.78709,R,ugm-3,11.96078,R,ugm-3,16.23426,R,ugm-3,33.57765,R,ugm-3
06-01-2016,18:00,2.92305,R,ugm-3,14.44942,R,ugm-3,18.93136,R,ugm-3,25.94410,R,ugm-3
06-01-2016,19:00,1.59748,R,ugm-3,10.18932,R,ugm-3,12.63876,R,ugm-3,26.19356,R,ugm-3
06-01-2016,20:00,0.95169,R,ugm-3,11.07338,R,ugm-3,12.53261,R,ugm-3,25.44518,R,ugm-3
06-01-2016,21:00,1.08765,R,ugm-3,11.44631,R,ugm-3,13.11401,R,ugm-3,27.19141,R,ugm-3
06-01-2016,22:00,1.39355,R,ugm-3,12.88164,R,ugm-3,15.01838,R,ugm-3,30.68389,R,ugm-3
06-01-2016,23:00,0.84972,R,ugm-3,8.95576,R,ugm-3,10.25865,R,ugm-3,34.62540,R,ugm-3
06-01-2016,24:00,1.22360,R,ugm-3,8.75303,R,ugm-3,10.62920,R,ugm-3,36.52131,R,ugm-3
07-01-2016,01:00,1.44895,R,ugm-3,12.50138,R,ugm-3,14.72306,R,ugm-3,43.83888,R,ugm-3
07-01-2016,02:00,1.25634,R,ugm-3,10.91225,R,ugm-3,12.83861,R,ugm-3,51.22297,R,ugm-3
07-01-2016,03:00,0.81480,R,ugm-3,6.35858,R,ugm-3,7.60793,R,ugm-3,55.97939,R,ugm-3
07-01-2016,04:00,0.91645,R,ugm-3,6.36145,R,ugm-3,7.76666,R,ugm-3,53.18541,R,ugm-3
07-01-2016,05:00,0.95044,R,ugm-3,6.25579,R,ugm-3,7.71311,R,ugm-3,54.53250,R,ugm-3
07-01-2016,06:00,0.78081,R,ugm-3,4.45565,R,ugm-3,5.65287,R,ugm-3,58.67358,R,ugm-3
07-01-2016,07:00,0.57719,R,ugm-3,3.65861,R,ugm-3,4.54362,R,ugm-3,63.06412,R,ugm-3
07-01-2016,08:00,0.98443,R,ugm-3,5.83408,R,ugm-3,7.34352,R,ugm-3,57.32648,R,ugm-3
07-01-2016,09:00,1.01842,R,ugm-3,6.36337,R,ugm-3,7.92492,R,ugm-3,51.33938,R,ugm-3
07-01-2016,10:00,1.35831,R,ugm-3,6.21228,R,ugm-3,8.29499,R,ugm-3,48.74497,R,ugm-3
07-01-2016,11:00,1.32432,R,ugm-3,6.73965,R,ugm-3,8.77025,R,ugm-3,48.64519,R,ugm-3
07-01-2016,12:00,1.15438,R,ugm-3,6.26057,R,ugm-3,8.03059,R,ugm-3,53.68433,R,ugm-3
07-01-2016,13:00,1.39230,R,ugm-3,7.95600,R,ugm-3,10.09083,R,ugm-3,45.15271,R,ugm-3
07-01-2016,14:00,2.58066,R,ugm-3,17.28135,R,ugm-3,21.23831,R,ugm-3,31.33249,R,ugm-3
07-01-2016,15:00,1.63022,R,ugm-3,13.72028,R,ugm-3,16.21991,R,ugm-3,55.63014,R,ugm-3
07-01-2016,16:00,1.62991,R,ugm-3,15.99233,R,ugm-3,18.49148,R,ugm-3,55.87960,R,ugm-3
07-01-2016,17:00,1.15438,R,ugm-3,12.01911,R,ugm-3,13.78913,R,ugm-3,50.49121,R,ugm-3
07-01-2016,18:00,1.22235,R,ugm-3,15.24310,R,ugm-3,17.11735,R,ugm-3,50.64089,R,ugm-3
07-01-2016,19:00,0.81480,R,ugm-3,9.00023,R,ugm-3,10.24957,R,ugm-3,60.51960,R,ugm-3
07-01-2016,20:00,0.78081,R,ugm-3,7.30862,R,ugm-3,8.50584,R,ugm-3,62.86455,R,ugm-3
07-01-2016,21:00,0.50952,R,ugm-3,5.34735,R,ugm-3,6.12861,R,ugm-3,65.60864,R,ugm-3
07-01-2016,22:00,0.61149,R,ugm-3,4.08128,R,ugm-3,5.01888,R,ugm-3,66.70627,R,ugm-3
07-01-2016,23:00,0.74713,R,ugm-3,1.76046,R,ugm-3,2.90604,R,ugm-3,70.69767,R,ugm-3
07-01-2016,24:00,0.61118,R,ugm-3,1.17619,R,ugm-3,2.11331,R,ugm-3,73.24219,R,ugm-3
08-01-2016,01:00,0.45319,R,ugm-3,1.27564,R,ugm-3,1.97051,R,ugm-3,74.50613,R,ugm-3
08-01-2016,02:00,0.18127,R,ugm-3,1.19978,R,ugm-3,1.47773,R,ugm-3,75.17137,R,ugm-3
08-01-2016,03:00,0.47585,R,ugm-3,1.27612,R,ugm-3,2.00573,R,ugm-3,74.24004,R,ugm-3
08-01-2016,04:00,0.33989,R,ugm-3,1.80110,R,ugm-3,2.32225,R,ugm-3,65.75832,R,ugm-3
08-01-2016,05:00,0.54351,R,ugm-3,2.54506,R,ugm-3,3.37843,R,ugm-3,58.47401,R,ugm-3
08-01-2016,06:00,0.95044,R,ugm-3,3.76858,R,ugm-3,5.22591,R,ugm-3,54.48261,R,ugm-3
08-01-2016,07:00,0.88278,R,ugm-3,5.45588,R,ugm-3,6.80946,R,ugm-3,53.28519,R,ugm-3
08-01-2016,08:00,1.86752,R,ugm-3,11.65238,R,ugm-3,14.51588,R,ugm-3,51.73852,R,ugm-3
08-01-2016,09:00,3.80333,R,ugm-3,22.40828,R,ugm-3,28.23998,R,ugm-3,40.76217,R,ugm-3
08-01-2016,10:00,4.82206,R,ugm-3,27.49697,R,ugm-3,34.89069,R,ugm-3,31.48217,R,ugm-3
08-01-2016,11:00,22.03854,R,ugm-3,46.17731,R,ugm-3,79.96928,R,ugm-3,9.62925,R,ugm-3
08-01-2016,12:00,21.83492,R,ugm-3,42.74198,R,ugm-3,76.22173,R,ugm-3,9.77893,R,ugm-3
08-01-2016,13:00,10.42525,R,ugm-3,36.69418,R,ugm-3,52.67933,R,ugm-3,23.39958,R,ugm-3
08-01-2016,14:00,4.85574,R,ugm-3,29.29233,R,ugm-3,36.73769,R,ugm-3,29.83572,R,ugm-3
08-01-2016,15:00,5.87447,R,ugm-3,27.04514,R,ugm-3,36.05254,R,ugm-3,34.52561,R,ugm-3
08-01-2016,16:00,3.39577,R,ugm-3,25.30285,R,ugm-3,30.50963,R,ugm-3,36.72088,R,ugm-3
08-01-2016,17:00,1.39230,R,ugm-3,17.23736,R,ugm-3,19.37219,R,ugm-3,42.00949,R,ugm-3
08-01-2016,18:00,2.00379,R,ugm-3,23.37314,R,ugm-3,26.44557,R,ugm-3,40.66239,R,ugm-3
08-01-2016,19:00,2.30938,R,ugm-3,26.07120,R,ugm-3,29.61219,R,ugm-3,40.91185,R,ugm-3
08-01-2016,20:00,1.18837,R,ugm-3,12.53596,R,ugm-3,14.35809,R,ugm-3,55.48046,R,ugm-3
08-01-2016,21:00,1.15469,R,ugm-3,14.85678,R,ugm-3,16.62728,R,ugm-3,41.56045,R,ugm-3
08-01-2016,22:00,1.22235,R,ugm-3,13.38081,R,ugm-3,15.25506,R,ugm-3,49.89250,R,ugm-3
08-01-2016,23:00,0.81449,R,ugm-3,5.66578,R,ugm-3,6.91464,R,ugm-3,50.39143,R,ugm-3
08-01-2016,24:00,1.05241,R,ugm-3,7.46497,R,ugm-3,9.07864,R,ugm-3,38.01809,R,ugm-3
09-01-2016,01:00,0.72385,R,ugm-3,6.75814,R,ugm-3,7.86803,R,ugm-3,42.17579,R,ugm-3
09-01-2016,02:00,0.76917,R,ugm-3,4.79209,R,ugm-3,5.97146,R,ugm-3,50.69078,R,ugm-3
09-01-2016,03:00,0.71221,R,ugm-3,6.38966,R,ugm-3,7.48170,R,ugm-3,36.72088,R,ugm-3
09-01-2016,04:00,0.84816,R,ugm-3,8.13099,R,ugm-3,9.43149,R,ugm-3,30.83357,R,ugm-3
09-01-2016,05:00,0.78019,R,ugm-3,7.76093,R,ugm-3,8.95719,R,ugm-3,28.13937,R,ugm-3
09-01-2016,06:00,1.56068,R,ugm-3,11.14844,R,ugm-3,13.54146,R,ugm-3,19.80732,R,ugm-3
09-01-2016,07:00,1.49271,R,ugm-3,13.14892,R,ugm-3,15.43770,R,ugm-3,23.24991,R,ugm-3
09-01-2016,08:00,3.49431,R,ugm-3,28.99541,R,ugm-3,34.35328,R,ugm-3,10.57721,R,ugm-3
09-01-2016,09:00,4.24051,R,ugm-3,35.28037,R,ugm-3,41.78239,R,ugm-3,15.76603,R,ugm-3
09-01-2016,10:00,4.64806,R,ugm-3,30.33512,R,ugm-3,37.46205,R,ugm-3,24.49722,R,ugm-3
09-01-2016,11:00,2.78210,R,ugm-3,16.65166,R,ugm-3,20.91749,R,ugm-3,39.81422,R,ugm-3
09-01-2016,12:00,3.08738,R,ugm-3,20.82043,R,ugm-3,25.55435,R,ugm-3,36.37163,R,ugm-3
09-01-2016,13:00,7.93875,R,ugm-3,39.30474,R,ugm-3,51.47733,R,ugm-3,19.85722,R,ugm-3
09-01-2016,14:00,8.41366,R,ugm-3,41.05325,R,ugm-3,53.95402,R,ugm-3,23.29980,R,ugm-3
09-01-2016,15:00,2.74811,R,ugm-3,20.28684,R,ugm-3,24.50056,R,ugm-3,42.00949,R,ugm-3
09-01-2016,16:00,2.13725,R,ugm-3,19.37936,R,ugm-3,22.65643,R,ugm-3,40.56260,R,ugm-3
09-01-2016,17:00,0.91614,R,ugm-3,13.19003,R,ugm-3,14.59477,R,ugm-3,47.74712,R,ugm-3
09-01-2016,18:00,1.83197,R,ugm-3,16.05353,R,ugm-3,18.86251,R,ugm-3,45.55185,R,ugm-3
09-01-2016,19:00,1.15375,R,ugm-3,13.08963,R,ugm-3,14.85869,R,ugm-3,49.29379,R,ugm-3
09-01-2016,20:00,1.39105,R,ugm-3,15.25410,R,ugm-3,17.38702,R,ugm-3,43.20691,R,ugm-3
09-01-2016,21:00,1.52670,R,ugm-3,20.20987,R,ugm-3,22.55077,R,ugm-3,36.87056,R,ugm-3
09-01-2016,22:00,1.52670,R,ugm-3,19.57778,R,ugm-3,21.91868,R,ugm-3,36.32174,R,ugm-3
09-01-2016,23:00,1.52701,R,ugm-3,17.31195,R,ugm-3,19.65333,R,ugm-3,35.67314,R,ugm-3
09-01-2016,24:00,1.25510,R,ugm-3,9.50895,R,ugm-3,11.43340,R,ugm-3,54.38283,R,ugm-3
10-01-2016,01:00,0.58748,R,ugm-3,6.74985,R,ugm-3,7.65064,R,ugm-3,62.13279,R,ugm-3
10-01-2016,02:00,0.40662,R,ugm-3,5.90389,R,ugm-3,6.52736,R,ugm-3,65.30928,R,ugm-3
10-01-2016,03:00,0.47460,R,ugm-3,5.32583,R,ugm-3,6.05354,R,ugm-3,57.72562,R,ugm-3
10-01-2016,04:00,0.50859,R,ugm-3,3.01075,R,ugm-3,3.79058,R,ugm-3,64.61079,R,ugm-3
10-01-2016,05:00,0.64392,R,ugm-3,3.64475,R,ugm-3,4.63208,R,ugm-3,64.11186,R,ugm-3
10-01-2016,06:00,0.61055,R,ugm-3,4.64403,R,ugm-3,5.58020,R,ugm-3,58.87315,R,ugm-3
10-01-2016,07:00,0.60993,R,ugm-3,4.11857,R,ugm-3,5.05378,R,ugm-3,59.62154,R,ugm-3
10-01-2016,08:00,0.54226,R,ugm-3,3.59072,R,ugm-3,4.42218,R,ugm-3,61.91659,R,ugm-3
10-01-2016,09:00,0.64423,R,ugm-3,4.59191,R,ugm-3,5.57972,R,ugm-3,53.78412,R,ugm-3
10-01-2016,10:00,1.05085,R,ugm-3,4.07363,R,ugm-3,5.68491,R,ugm-3,53.13551,R,ugm-3
10-01-2016,11:00,0.67791,R,ugm-3,2.85632,R,ugm-3,3.89576,R,ugm-3,58.57380,R,ugm-3
10-01-2016,12:00,0.54226,R,ugm-3,2.85393,R,ugm-3,3.68539,R,ugm-3,62.86455,R,ugm-3
10-01-2016,13:00,0.74589,R,ugm-3,2.38393,R,ugm-3,3.52761,R,ugm-3,59.92089,R,ugm-3
10-01-2016,14:00,0.91552,R,ugm-3,3.28089,R,ugm-3,4.68467,R,ugm-3,61.91659,R,ugm-3
10-01-2016,15:00,0.50828,R,ugm-3,2.80038,R,ugm-3,3.57972,R,ugm-3,70.44821,R,ugm-3
10-01-2016,16:00,0.74589,R,ugm-3,2.01482,R,ugm-3,3.15849,R,ugm-3,72.19445,R,ugm-3
10-01-2016,17:00,0.84723,R,ugm-3,1.91202,R,ugm-3,3.21109,R,ugm-3,73.54155,R,ugm-3
10-01-2016,18:00,0.84723,R,ugm-3,2.96533,R,ugm-3,4.26440,R,ugm-3,67.80391,R,ugm-3
10-01-2016,19:00,0.71221,R,ugm-3,2.80325,R,ugm-3,3.89528,R,ugm-3,64.76047,R,ugm-3
10-01-2016,20:00,0.74589,R,ugm-3,2.64690,R,ugm-3,3.79058,R,ugm-3,66.30713,R,ugm-3
10-01-2016,21:00,0.98287,R,ugm-3,2.75687,R,ugm-3,4.26392,R,ugm-3,65.10971,R,ugm-3
10-01-2016,22:00,0.71221,R,ugm-3,2.06646,R,ugm-3,3.15849,R,ugm-3,65.45896,R,ugm-3
10-01-2016,23:00,0.71221,R,ugm-3,1.59263,R,ugm-3,2.68467,R,ugm-3,68.75187,R,ugm-3
10-01-2016,24:00,0.50859,R,ugm-3,1.32584,R,ugm-3,2.10566,R,ugm-3,68.35273,R,ugm-3
11-01-2016,01:00,0.49684,R,ugm-3,1.20169,R,ugm-3,1.96350,R,ugm-3,67.92032,R,ugm-3
11-01-2016,02:00,0.44030,R,ugm-3,1.90198,R,ugm-3,2.57709,R,ugm-3,66.19072,R,ugm-3
11-01-2016,03:00,0.40631,R,ugm-3,1.74372,R,ugm-3,2.36672,R,ugm-3,65.50885,R,ugm-3
11-01-2016,04:00,0.47397,R,ugm-3,2.27109,R,ugm-3,2.99784,R,ugm-3,65.80821,R,ugm-3
11-01-2016,05:00,0.81324,R,ugm-3,2.64499,R,ugm-3,3.89194,R,ugm-3,62.31573,R,ugm-3
11-01-2016,06:00,1.42255,R,ugm-3,4.76117,R,ugm-3,6.94238,R,ugm-3,54.68218,R,ugm-3
11-01-2016,07:00,1.04960,R,ugm-3,5.43819,R,ugm-3,7.04756,R,ugm-3,58.07487,R,ugm-3
11-01-2016,08:00,1.38856,R,ugm-3,7.23260,R,ugm-3,9.36169,R,ugm-3,56.17896,R,ugm-3
11-01-2016,09:00,1.96419,R,ugm-3,19.70879,R,ugm-3,22.72050,R,ugm-3,40.81207,R,ugm-3
11-01-2016,10:00,4.33499,R,ugm-3,27.59164,R,ugm-3,34.23853,R,ugm-3,36.12217,R,ugm-3
11-01-2016,11:00,2.94612,R,ugm-3,14.57421,R,ugm-3,19.09153,R,ugm-3,52.48691,R,ugm-3
11-01-2016,12:00,1.99818,R,ugm-3,6.35046,R,ugm-3,9.41428,R,ugm-3,63.16391,R,ugm-3
11-01-2016,13:00,1.59156,R,ugm-3,4.81759,R,ugm-3,7.25794,R,ugm-3,64.81036,R,ugm-3
11-01-2016,14:00,1.32058,R,ugm-3,4.81233,R,ugm-3,6.83719,R,ugm-3,63.66283,R,ugm-3
11-01-2016,15:00,1.52358,R,ugm-3,5.81591,R,ugm-3,8.15203,R,ugm-3,60.76907,R,ugm-3
11-01-2016,16:00,1.08390,R,ugm-3,11.43388,R,ugm-3,13.09584,R,ugm-3,51.04003,R,ugm-3
11-01-2016,17:00,1.38856,R,ugm-3,22.16922,R,ugm-3,24.29831,R,ugm-3,34.87486,R,ugm-3
11-01-2016,18:00,2.20117,R,ugm-3,19.45060,R,ugm-3,22.82569,R,ugm-3,34.82497,R,ugm-3
11-01-2016,19:00,1.42223,R,ugm-3,17.96268,R,ugm-3,20.14341,R,ugm-3,32.97894,R,ugm-3
11-01-2016,20:00,1.05023,R,ugm-3,15.64043,R,ugm-3,17.25075,R,ugm-3,36.37163,R,ugm-3
11-01-2016,21:00,1.11758,R,ugm-3,13.69637,R,ugm-3,15.40997,R,ugm-3,37.71873,R,ugm-3
11-01-2016,22:00,0.64330,R,ugm-3,7.21825,R,ugm-3,8.20463,R,ugm-3,45.95099,R,ugm-3
11-01-2016,23:00,0.54195,R,ugm-3,4.06024,R,ugm-3,4.89122,R,ugm-3,53.28519,R,ugm-3
11-01-2016,24:00,0.40631,R,ugm-3,3.47932,R,ugm-3,4.10231,R,ugm-3,54.98154,R,ugm-3
12-01-2016,01:00,0.49643,R,ugm-3,5.12359,R,ugm-3,5.88476,R,ugm-3,51.75515,R,ugm-3
12-01-2016,02:00,1.11602,R,ugm-3,8.21993,R,ugm-3,9.93113,R,ugm-3,54.33293,R,ugm-3
12-01-2016,03:00,0.74401,R,ugm-3,6.95146,R,ugm-3,8.09227,R,ugm-3,55.63014,R,ugm-3
12-01-2016,04:00,0.71034,R,ugm-3,4.95338,R,ugm-3,6.04254,R,ugm-3,62.26584,R,ugm-3
12-01-2016,05:00,0.64267,R,ugm-3,3.79631,R,ugm-3,4.78173,R,ugm-3,63.16391,R,ugm-3
12-01-2016,06:00,0.50734,R,ugm-3,3.47836,R,ugm-3,4.25627,R,ugm-3,69.05122,R,ugm-3
12-01-2016,07:00,0.71096,R,ugm-3,4.37484,R,ugm-3,5.46497,R,ugm-3,70.44821,R,ugm-3
12-01-2016,08:00,1.11665,R,ugm-3,8.37675,R,ugm-3,10.08892,R,ugm-3,66.20735,R,ugm-3
12-01-2016,09:00,1.38700,R,ugm-3,12.48050,R,ugm-3,14.60720,R,ugm-3,61.86670,R,ugm-3
12-01-2016,10:00,1.79331,R,ugm-3,10.70235,R,ugm-3,13.45205,R,ugm-3,62.81466,R,ugm-3
12-01-2016,11:00,1.59031,R,ugm-3,10.85631,R,ugm-3,13.29474,R,ugm-3,64.46111,R,ugm-3
12-01-2016,12:00,1.79299,R,ugm-3,10.43986,R,ugm-3,13.18908,R,ugm-3,62.41552,R,ugm-3
12-01-2016,13:00,2.13132,R,ugm-3,16.22613,R,ugm-3,19.49411,R,ugm-3,53.48476,R,ugm-3
12-01-2016,14:00,2.19899,R,ugm-3,19.43291,R,ugm-3,22.80465,R,ugm-3,47.54755,R,ugm-3
12-01-2016,15:00,2.60499,R,ugm-3,18.86299,R,ugm-3,22.85724,R,ugm-3,46.44992,R,ugm-3
12-01-2016,16:00,2.57131,R,ugm-3,21.33203,R,ugm-3,25.27464,R,ugm-3,41.51056,R,ugm-3
12-01-2016,17:00,2.36831,R,ugm-3,22.64161,R,ugm-3,26.27297,R,ugm-3,41.66024,R,ugm-3
12-01-2016,18:00,2.13164,R,ugm-3,16.69852,R,ugm-3,19.96698,R,ugm-3,44.15486,R,ugm-3
12-01-2016,19:00,1.89465,R,ugm-3,23.36788,R,ugm-3,26.27297,R,ugm-3,38.31744,R,ugm-3
12-01-2016,20:00,2.06397,R,ugm-3,20.95383,R,ugm-3,24.11854,R,ugm-3,43.65594,R,ugm-3
12-01-2016,21:00,1.38700,R,ugm-3,19.83788,R,ugm-3,21.96458,R,ugm-3,43.65594,R,ugm-3
12-01-2016,22:00,1.55663,R,ugm-3,25.35736,R,ugm-3,27.74416,R,ugm-3,36.57120,R,ugm-3